Skip Page Navigation
NASA JPL Caltech
NASA Logo - Jet Propulsion Laboratory + View the NASA Portal
+ Near-Earth Object (NEO) Program
Search JPL
JPL Home Earth Solar System Stars & Galaxies Technology
JPL Solar System Dynamics
BODIES ORBITS EPHEMERIDES TOOLS PHYSICAL DATA DISCOVERY FAQ SITE MAP
JPL Small-Body Database Browser
Search: [ help ]  
3098 van Sprang (4579 P-L)
Classification: Main-belt Asteroid          SPK-ID: 2003098
Ephemeris | Orbit Diagram | Orbital Elements | Physical Parameters | Discovery Circumstances ]

[ show orbit diagram ]
Orbital Elements at Epoch 2456400.5 (2013-Apr-18.0) TDB
Reference: MPO236409 (heliocentric ecliptic J2000)
 Element Value Uncertainty (1-sigma)   Units 
e 0.2107837 n/a  
a 2.3023457 n/a AU
q 1.8170488 n/a AU
i 1.34541 n/a deg
node 117.82202 n/a deg
peri 194.99604 n/a deg
M 50.54992 n/a deg
tp 2456221.3271490
(2012-Oct-20.82714900)
n/a JED
period 1276.0104541
3.49
n/a
n/a
d
yr
n 0.28212935 n/a deg/d
Q 2.7876426 n/a AU
  Orbit Determination Parameters
   # obs. used (total)      766  
   first obs. used      1960-??-??  
   last obs. used      2012-08-07  
   # oppositions      18  
   planetary ephem.      DE403  
   condition code      0  
   fit RMS      0.54  
   data source      MPC:mpn  
   producer      MPCLINUX  

Additional Information
 T_jup = 3.560 

Ephemeris | Orbit Diagram | Orbital Elements | Physical Parameters | Discovery Circumstances ]

Physical Parameter Table
Parameter Symbol Value Units Sigma Reference Notes
absolute magnitude H 14.7 mag n/a PDS3 (MPC 17267)  

3098 van Sprang (4579 P-L)          Discovered 1960-Sep-24 by PLS at Palomar (675)
These planets have all been discovered as a result of the Palomar survey of faint minor planets and subsequently identified with planets observed at other oppositions. In Sept. and Oct. 1960, T. Gehrels exposed 130 plates with the 122 cm Schmidt camera at Palomar. In the following years C. J. van Houten and I. van Houten-Groeneveld measured these plates astrometrically and photometrically at Leiden. P. Herget, Cincinnati, computed the orbits of the planets found on the NORC computer, Dahlgren, Virginia, USA.
Note: "planet" implies "minor planet"
Reference: DISCOVERY.DBLast Updated: 2003-08-29

Alternate Designations
 4579 P-L = 1980 FJ3 
Ephemeris | Orbit Diagram | Orbital Elements | Physical Parameters | Discovery Circumstances ]
ABOUT SSD CREDITS/AWARDS PRIVACY/COPYRIGHT GLOSSARY LINKS
FirstGov 2013-May-26 04:33 UT
(server date/time)  
NASA Home Page
Site Manager:   Donald K. Yeomans
Webmaster  Alan B. Chamberlin